689  
NZUS99 KDVN 221010  
HRRCWA  
HOURLY WEATHER ROUNDUP  
NATIONAL WEATHER SERVICE QUAD CITIES IA IL  
400 AM CST WED NOV 22 2017  
 
NOTE: "FAIR" INDICATES FEW OR NO CLOUDS BELOW 12,000 FEET WITH  
NO SIGNIFICANT WEATHER AND/OR OBSTRUCTIONS TO VISIBILITY.  
 
* - THESE STATIONS ARE NOT NWS STATIONS AND ARE NOT SUBJECT TO NWS  
QUALITY CONTROL. SOME STATIONS DO NOT REPORT WEATHER SUCH AS FOG  
AND SOME ONLY REPORT TMP AND DP IN WHOLE DEGREES CELSIUS, WHICH ARE  
THEN CONVERTED TO FAHRENHEIT.  
   
..NORTHEAST IOWA...............................................
 
 
 
CITY SKY/WX TMP DP RH WIND PRES REMARKS  
DECORAH * CLOUDY 16 12 86 N9 30.31F WCI 4  
DUBUQUE CLOUDY 18 12 77 NW8 30.32R WCI 8  
INDEPENDENCE * CLOUDY 14 12 90 NW3 30.34S  
OELWEIN * CLOUDY 16 14 93 NW6 30.34R WCI 7  
WATERLOO CLOUDY 16 11 80 NW9 30.36S WCI 4  
   
..SOUTHWEST AND SOUTH CENTRAL WISCONSIN........................
 
 
 
CITY SKY/WX TMP DP RH WIND PRES REMARKS  
BOSCOBEL CLEAR 19 11 70 CALM 30.34S  
JANESVILLE * CLEAR 21 16 79 CALM 30.30R  
LONE ROCK PTCLDY 17 12 80 W6 30.33R WCI 9  
MINERAL POINT* CLEAR 21 16 79 NW3 30.29R  
MONROE * CLEAR 21 14 73 W9 30.28R WCI 11  
PRAIRIE DU CHI CLOUDY 20 12 69 NW6 30.34S WCI 13  
   
..EAST CENTRAL IOWA............................................
 
 
 
CITY SKY/WX TMP DP RH WIND PRES REMARKS  
CEDAR RAPIDS CLOUDY 13 9 84 W8 30.35R WCI 2  
CLINTON * CLOUDY 15 12 88 NW9 30.35R WCI 3  
DAVENPORT CLOUDY 18 13 80 NW7 30.37R WCI 9  
IOWA CITY CLOUDY 20 13 74 NW7 30.39S WCI 11  
MARSHALLTOWN CLOUDY 15 11 83 NW7 30.36F WCI 5  
MONTICELLO * CLOUDY 16 12 86 NW3 30.35R  
MUSCATINE * CLOUDY 19 14 79 W6 30.39R WCI 11  
NEWTON * CLOUDY 18 12 79 NW7 30.38S WCI 8  
VINTON * CLOUDY 20 13 76 NW5 30.36S WCI 13  
   
..NORTHWEST ILLINOIS...........................................
 
 
 
CITY SKY/WX TMP DP RH WIND PRES REMARKS  
FREEPORT * CLEAR 19 13 77 W5 30.33R WCI 12  
MOLINE CLOUDY 20 13 74 W6 30.36R WCI 12  
PERU * CLEAR 19 15 84 NW7 30.33R WCI 10  
ROCHELLE * CLEAR 19 16 86 NW3 30.32R  
ROCKFORD PTCLDY 21 14 74 NW7 30.33R WCI 12  
SAVANNA * CLOUDY 22 14 70 NW6 30.35R WCI 15  
STERLING/R.F.* PTCLDY 19 16 88 W7 30.34R WCI 10  
   
..SOUTHEAST IOWA AND NORTHEAST MISSOURI........................
 
 
 
CITY SKY/WX TMP DP RH WIND PRES REMARKS  
BURLINGTON CLOUDY 20 15 81 NW7 30.37S WCI 11  
FAIRFIELD * CLOUDY 18 12 79 NW7 30.38S WCI 8  
FORT MADISON * CLOUDY 19 16 86 NW6 30.39R WCI 11  
KEOKUK * CLOUDY 21 16 79 NW5 30.38R WCI 15  
KIRKSVILLE CLOUDY 20 15 81 N3 30.39F  
MT PLEASANT * CLOUDY 20 13 76 NW7 30.38S WCI 11  
OTTUMWA CLOUDY 18 11 74 NW7 30.37F WCI 9  
WASHINGTON * CLOUDY 18 14 86 NW7 30.39R WCI 8  
   
..WESTERN ILLINOIS.............................................
 
 
 
CITY SKY/WX TMP DP RH WIND PRES REMARKS  
GALESBURG * CLOUDY 17 14 89 W7 30.37R WCI 8  
MACOMB * CLOUDY 19 17 89 NW8 30.38S WCI 9  
PEORIA CLOUDY 21 16 81 NW3 30.35R  
QUINCY CLOUDY 22 16 78 NW10 30.37R WCI 11  
 
END...  
 
 
CLICK HERE TO GO TO PREVIOUS BULLETINS.

The Nexlab IL Page
The Nexlab IA Page
The Nexlab MO Page Main Text Page